Location: Avon Lake
(41.5219°N, 93.5010°W)
Time: 13:45:00
(UTC+00:00)

Tiangong - Pass Details

Date: 03 December 2022
Orbit: 383 x 387 km, 41.5° (Epoch: 27 January)

Event Time Altitude Azimuth Distance (km) Brightness Sun altitude
Rises 00:19:12 0° 255° (WSW) 2,257 3.6 -17.2°
Reaches altitude 10° 00:21:16 10° 253° (WSW) 1,407 2.0 -17.6°
Maximum altitude 00:24:26 72° 169° (S) 409 -2.1 -18.2°
Enters shadow 00:24:46 64° 120° (ESE) 432 -2.2 -18.2°
